User: anonymous   Login
Location: ????????
(55.8351°N, 38.7040°E)
Time: 09:51:45
(UTC+00:00)
Language:

SWAS - Orbit

View from above orbital plane
View from above orbital plane
View from above satellite
View from above satellite

Ground track
Ground track

The orbit data is extracted from the following two-line orbital elements,

1 25560U 98071A   24164.88844510  .00005060  00000-0  40963-3 0  9994
2 25560  69.8994 309.3737 0009291 287.7562  72.2584 15.00336945386747
Epoch (UTC): 12 June 2024 21:19:21
Eccentricity: 0.0009291
inclination: 69.8994°
perigee height: 559 km
apogee height: 572 km
right ascension of ascending node: 309.3737°
argument of perigee: 287.7562°
revolutions per day: 15.00336945
mean anomaly at epoch: 72.2584°
orbit number at epoch: 38674

The dashed part of the orbit path shows where the satellite is in the earth's shadow,  

DLR